This is the latest recevied weather packets stored in our database for station/object N8AMF. If no packets are shown the sender has not sent any weather packets the latest 1 day(s).
| Time | Temp. | Humidity | Pressure | Rain* | Wind** | Luminosity | Snow |
|---|---|---|---|---|---|---|---|
| 1778030908 | 9.44° C | 98% | 1007.6 hPa | 3.05 mm | 0.45 m/s, 60° | 0 W/m² | - |
| 1778030606 | 9.44° C | 98% | 1007.5 hPa | 1.78 mm | 0.89 m/s, 65° | 0 W/m² | - |
| 1778030303 | 9.44° C | 98% | 1007.6 hPa | 1.27 mm | 0.45 m/s, 84° | 0 W/m² | - |
| 1778029999 | 9.44° C | 98% | 1007.6 hPa | 1.27 mm | 0 m/s | 0 W/m² | - |
| 1778029697 | 9.44° C | 98% | 1007.6 hPa | 1.27 mm | 0.89 m/s, 65° | 0 W/m² | - |
| 1778029395 | 9.44° C | 98% | 1007.3 hPa | 0.51 mm | 0 m/s | 0 W/m² | - |
| 1778029091 | 9.44° C | 98% | 1007.4 hPa | 0.51 mm | 0.89 m/s, 15° | 0 W/m² | - |
| 1778028788 | 9.44° C | 98% | 1007.6 hPa | 0.51 mm | 0 m/s | 0 W/m² | - |
| 1778028484 | 9.44° C | 98% | 1007.6 hPa | 0.51 mm | 0 m/s | 0 W/m² | - |
| 1778028182 | 9.44° C | 98% | 1007.7 hPa | 0.51 mm | 0.89 m/s, 65° | 0 W/m² | - |
| 1778027878 | 9.44° C | 98% | 1007.5 hPa | 2.29 mm | 0 m/s | 0 W/m² | - |
| 1778027574 | 9.44° C | 98% | 1007.7 hPa | 2.29 mm | 0 m/s | 0 W/m² | - |
| 1778027271 | 9.44° C | 98% | 1007.7 hPa | 1.27 mm | 0 m/s | 0 W/m² | - |
| 1778026967 | 9.44° C | 98% | 1007.6 hPa | 1.78 mm | 0.45 m/s, 348° | 1 W/m² | - |
| 1778026663 | 9.44° C | 98% | 1007.6 hPa | 1.78 mm | 0 m/s | 1 W/m² | - |
| 1778026360 | 9.44° C | 98% | 1007.3 hPa | 1.78 mm | 1.34 m/s, 331° | 1 W/m² | - |
| 1778026057 | 9.44° C | 98% | 1007.2 hPa | 2.29 mm | 0.89 m/s, 27° | 3 W/m² | - |
| 1778025755 | 9.44° C | 98% | 1007.2 hPa | 3.05 mm | 0.89 m/s, 353° | 2 W/m² | - |
| 1778025452 | 9.44° C | 98% | 1007.1 hPa | 3.56 mm | 0 m/s | 3 W/m² | - |
| 1778025149 | 9.44° C | 98% | 1007 hPa | 3.05 mm | 1.34 m/s, 61° | 3 W/m² | - |
| 1778024846 | 9.44° C | 98% | 1006.9 hPa | 2.29 mm | 0 m/s | 8 W/m² | - |
| 1778024543 | 9.44° C | 98% | 1007 hPa | 1.78 mm | 1.79 m/s, 91° | 14 W/m² | - |
| 1778024240 | 10° C | 98% | 1007 hPa | 0.51 mm | 0 m/s | 9 W/m² | - |
| 1778023938 | 10° C | 98% | 1007 hPa | 0.51 mm | 0 m/s | 5 W/m² | - |
| 1778023635 | 10° C | 98% | 1006.9 hPa | 0.51 mm | 0.45 m/s, 330° | 8 W/m² | - |
* Rain latest hour (hover to see other rain measurements)
** Current wind speed in m/s (hover to see current wind gust speed)